CW8248 Weather Reports


time (UTC)temp
C
wind
direction
speed
KPH
gust
KPH
rain 1hr
cm
rain 24hr
cm
rain mn
cm
humidity
%
barometer
mb
20260505200100 18 191 17.7 40.2 0.00 0.00 0.00 56 1012.8
20260505195558 18 269 20.9 43.5 0.00 0.00 0.00 56 1012.8
20260505195055 18 242 19.3 43.5 0.00 0.00 0.00 57 1012.9
20260505194607 18 311 20.9 43.5 0.00 0.00 0.00 56 1012.9
20260505194057 18 265 22.5 41.8 0.00 0.00 0.00 56 1013.0
20260505193555 18 235 20.9 41.8 0.00 0.00 0.00 57 1013.1
20260505193053 18 234 25.7 38.6 0.00 0.00 0.00 55 1013.2
20260505192553 18 321 17.7 38.6 0.00 0.00 0.00 56 1013.2
20260505192051 18 244 19.3 37.0 0.00 0.00 0.00 58 1013.3
20260505191551 18 191 20.9 33.8 0.00 0.00 0.00 57 1013.2
20260505191050 17 267 20.9 37.0 0.00 0.00 0.00 59 1013.2
20260505190550 17 277 19.3 37.0 0.00 0.00 0.00 57 1013.3
20260505190051 17 259 19.3 41.8 0.00 0.00 0.00 58 1013.2
20260505185549 17 267 24.1 43.5 0.00 0.00 0.00 57 1013.3
20260505185046 17 270 20.9 43.5 0.00 0.00 0.00 57 1013.3
20260505184545 17 255 19.3 40.2 0.00 0.00 0.00 57 1013.3
20260505184044 17 297 19.3 33.8 0.00 0.00 0.00 58 1013.4
20260505183545 17 227 24.1 40.2 0.00 0.00 0.00 57 1013.4
20260505183047 17 255 19.3 38.6 0.00 0.00 0.00 56 1013.4
20260505182541 17 251 16.1 40.2 0.00 0.00 0.00 58 1013.5
20260505182039 17 235 19.3 40.2 0.00 0.00 0.00 58 1013.4
20260505181539 17 265 22.5 40.2 0.00 0.00 0.00 58 1013.5
20260505181037 17 229 22.5 38.6 0.00 0.00 0.00 58 1013.5
20260505180536 17 256 17.7 38.6 0.00 0.00 0.00 59 1013.6
20260505180035 17 227 22.5 37.0 0.00 0.00 0.00 59 1013.5
20260505175533 17 250 20.9 43.5 0.00 0.00 0.00 59 1013.5
20260505175032 17 264 22.5 40.2 0.00 0.00 0.00 59 1013.4
20260505174531 16 266 19.3 35.4 0.00 0.00 0.00 59 1013.5
20260505174030 16 244 20.9 37.0 0.00 0.00 0.00 60 1013.5
20260505173530 16 246 20.9 40.2 0.00 0.00 0.00 61 1013.5
20260505173040 16 284 20.9 40.2 0.00 0.00 0.00 62 1013.5
20260505172529 16 219 19.3 40.2 0.00 0.00 0.00 63 1013.5
20260505172029 16 237 25.7 40.2 0.00 0.00 0.00 62 1013.4
20260505171528 16 207 20.9 38.6 0.00 0.00 0.00 60 1013.4
20260505171029 16 274 17.7 37.0 0.00 0.00 0.00 64 1013.5
20260505170527 16 245 19.3 35.4 0.00 0.00 0.00 63 1013.5
20260505170028 15 262 19.3 35.4 0.00 0.00 0.00 64 1013.5
20260505165526 15 262 17.7 40.2 0.00 0.00 0.00 65 1013.5
20260505165027 15 242 19.3 45.1 0.00 0.00 0.00 64 1013.5
20260505164543 15 269 17.7 45.1 0.00 0.00 0.00 65 1013.5
20260505164023 15 260 11.3 45.1 0.00 0.00 0.00 66 1013.5
20260505163521 15 258 17.7 45.1 0.00 0.00 0.00 67 1013.5
20260505163020 15 228 22.5 37.0 0.00 0.00 0.00 66 1013.5
20260505162520 15 341 14.5 37.0 0.00 0.00 0.00 65 1013.4
20260505162020 15 269 19.3 35.4 0.00 0.00 0.00 64 1013.4
20260505161519 15 258 17.7 35.4 0.00 0.00 0.00 65 1013.4
20260505161019 15 260 9.7 35.4 0.00 0.00 0.00 64 1013.4
20260505160518 15 262 14.5 37.0 0.00 0.00 0.00 65 1013.3
20260505153012 13 191 8.0 27.4 0.00 0.00 0.00 69 1013.3
20260505152510 13 191 9.7 27.4 0.00 0.00 0.00 70 1013.4
20260505152007 13 314 8.0 29.0 0.00 0.00 0.00 70 1013.3
20260505151506 13 236 11.3 30.6 0.00 0.00 0.00 70 1013.3
20260505151005 13 273 12.9 30.6 0.00 0.00 0.00 70 1013.1
20260505150504 13 240 9.7 30.6 0.00 0.00 0.00 70 1013.3
20260505140549 12 269 12.9 29.0 0.00 0.00 0.00 72 1012.8
20260505125040 13 271 4.8 12.9 0.00 0.00 0.00 68 1012.3
20260505124539 13 260 3.2 14.5 0.00 0.00 0.00 68 1012.2
20260505124039 13 251 3.2 12.9 0.00 0.00 0.00 67 1012.2
20260505123536 13 271 0.0 19.3 0.00 0.00 0.00 67 1012.1
20260505123036 13 270 6.4 20.9 0.00 0.00 0.00 68 1012.1
20260505122539 13 269 3.2 11.3 0.00 0.00 0.00 66 1012.0
20260505122037 13 258 1.6 11.3 0.00 0.00 0.00 67 1012.0
20260505121537 13 302 1.6 22.5 0.00 0.00 0.00 67 1012.0
20260505121034 13 257 1.6 22.5 0.00 0.00 0.00 67 1011.9
20260505120532 13 256 3.2 16.1 0.00 0.00 0.00 66 1011.9
20260505120032 13 267 8.0 19.3 0.00 0.00 0.00 66 1011.8
20260505115531 13 260 8.0 19.3 0.00 0.00 0.00 67 1011.8
20260505115033 13 258 4.8 20.9 0.00 0.00 0.00 67 1011.8
20260505114538 13 251 9.7 20.9 0.00 0.00 0.00 67 1011.8
20260505114029 13 240 6.4 12.9 0.00 0.00 0.00 67 1011.7
20260505113528 14 232 1.6 14.5 0.00 0.00 0.00 67 1011.8
20260505113028 14 243 4.8 19.3 0.00 0.00 0.00 67 1011.7
20260505112527 14 244 6.4 16.1 0.00 0.00 0.00 67 1011.8
20260505112026 14 245 9.7 16.1 0.00 0.00 0.00 67 1011.8
20260505111532 14 237 8.0 20.9 0.00 0.00 0.00 66 1011.7
20260505111024 15 267 9.7 20.9 0.00 0.00 0.00 65 1011.7
20260505110525 14 31 1.6 19.3 0.00 0.00 0.00 65 1011.7
20260505102019 14 260 4.8 20.9 0.00 0.00 0.00 67 1011.3
20260505101518 14 250 3.2 30.6 0.00 0.00 0.00 66 1011.3
20260505101017 15 260 11.3 24.1 0.00 0.00 0.00 66 1011.2
20260505100517 15 257 6.4 25.7 0.00 0.00 0.00 66 1011.1
20260505100015 15 268 3.2 14.5 0.00 0.00 0.00 65 1011.2
20260505095515 15 261 1.6 14.5 0.00 0.00 0.00 64 1011.1
20260505095011 15 241 6.4 14.5 0.00 0.00 0.00 64 1011.0
20260505094512 15 256 1.6 12.9 0.00 0.00 0.00 63 1011.0
20260505094017 15 269 4.8 12.9 0.00 0.00 0.00 63 1011.1
20260505093510 15 254 6.4 16.1 0.00 0.00 0.00 63 1010.9
20260505093010 16 236 3.2 19.3 0.00 0.00 0.00 62 1010.9
20260505092509 16 265 4.8 19.3 0.00 0.00 0.00 63 1010.8
20260505092009 16 323 8.0 22.5 0.00 0.00 0.00 62 1010.9
20260505091508 16 270 4.8 17.7 0.00 0.00 0.00 62 1010.8
20260505091006 16 12 1.6 14.5 0.00 0.00 0.00 62 1010.7
20260505090505 16 310 1.6 12.9 0.00 0.00 0.00 62 1010.6
20260505090006 16 270 6.4 14.5 0.00 0.00 0.00 61 1010.6
20260505085507 16 246 3.2 19.3 0.00 0.00 0.00 61 1010.5
20260505085004 16 273 4.8 24.1 0.00 0.00 0.00 60 1010.5
20260505084503 16 191 6.4 22.5 0.00 0.00 0.00 61 1010.5
20260505084002 16 254 1.6 14.5 0.00 0.00 0.00 62 1010.4
20260505083502 16 316 3.2 17.7 0.00 0.00 0.00 62 1010.5
20260505083002 16 191 4.8 17.7 0.00 0.00 0.00 62 1010.5
20260505082602 16 191 1.6 17.7 0.00 0.00 0.00 63 1010.5
20260505082101 17 191 8.0 33.8 0.00 0.00 0.00 61 1010.4
20260505081604 17 191 9.7 33.8 0.00 0.00 0.00 61 1010.4
20260505081058 17 191 6.4 22.5 0.00 0.00 0.00 62 1010.4
20260505080556 17 299 4.8 19.3 0.00 0.00 0.00 62 1010.4
20260505080057 17 274 8.0 17.7 0.00 0.00 0.00 62 1010.2
20260505075558 17 273 4.8 17.7 0.00 0.00 0.00 62 1010.2
20260505075054 17 191 1.6 16.1 0.00 0.00 0.00 62 1010.2
20260505074608 17 326 6.4 16.1 0.00 0.00 0.00 61 1010.1
20260505074053 17 349 3.2 16.1 0.00 0.00 0.00 61 1010.2
20260505073553 17 11 3.2 20.9 0.00 0.00 0.00 61 1010.1
20260505073054 17 215 4.8 20.9 0.00 0.00 0.00 60 1010.0
20260505072551 17 350 3.2 12.9 0.00 0.00 0.00 61 1010.0
20260505072051 17 191 1.6 17.7 0.00 0.00 0.00 61 1009.9
20260505071550 17 167 3.2 8.0 0.00 0.00 0.00 62 1009.9
20260505071049 17 225 4.8 16.1 0.00 0.00 0.00 61 1009.9
20260505070549 17 222 8.0 16.1 0.00 0.00 0.00 61 1009.9
20260505070047 18 323 4.8 14.5 0.00 0.00 0.00 60 1009.9
20260505065547 18 318 1.6 9.7 0.00 0.00 0.00 61 1010.0
20260505065048 18 200 1.6 9.7 0.00 0.00 0.00 61 1009.8
20260505064547 18 221 3.2 19.3 0.00 0.00 0.00 61 1009.8
20260505064046 18 307 1.6 19.3 0.00 0.00 0.00 61 1009.7
20260505063546 18 272 4.8 12.9 0.00 0.00 0.00 60 1009.7
20260505063050 18 253 1.6 12.9 0.00 0.00 0.00 60 1009.7
20260505062546 18 354 3.2 12.9 0.00 0.00 0.00 60 1009.6
20260505062045 18 334 4.8 14.5 0.00 0.00 0.00 60 1009.6
20260505061615 18 260 6.4 17.7 0.00 0.00 0.00 60 1009.5
20260505061045 18 270 6.4 17.7 0.00 0.00 0.00 60 1009.5
20260505060550 18 314 3.2 11.3 0.00 0.00 0.00 60 1009.4
20260505060051 18 239 3.2 16.1 0.00 0.00 0.00 60 1009.5
20260505055545 18 191 8.0 22.5 0.00 0.00 0.00 60 1009.5
20260505055049 18 257 8.0 22.5 0.00 0.00 0.00 60 1009.4
20260505054557 18 258 8.0 24.1 0.00 0.00 0.00 59 1009.4
20260505054044 18 345 1.6 24.1 0.00 0.00 0.00 58 1009.5
20260505053544 18 263 9.7 25.7 0.00 0.00 0.00 58 1009.4
20260505053045 18 261 3.2 19.3 0.00 0.00 0.00 58 1009.4
20260505052544 18 242 6.4 19.3 0.00 0.00 0.00 58 1009.4
20260505052044 18 239 3.2 17.7 0.00 0.00 0.00 57 1009.5
20260505051544 18 191 4.8 20.9 0.00 0.00 0.00 58 1009.5
20260505051044 18 238 11.3 20.9 0.00 0.00 0.00 58 1009.4
20260505050643 18 242 4.8 20.9 0.00 0.00 0.00 58 1009.4
20260505041543 19 252 9.7 25.7 0.00 0.00 0.00 55 1008.7
20260505041042 19 247 8.0 19.3 0.00 0.00 0.00 55 1008.7
20260505040543 19 240 9.7 20.9 0.00 0.00 0.00 54 1008.7
20260505040043 19 227 6.4 22.5 0.00 0.00 0.00 54 1008.6
20260505035542 19 236 11.3 22.5 0.00 0.00 0.00 54 1008.6
20260505035041 19 233 4.8 17.7 0.00 0.00 0.00 53 1008.5
20260505034544 19 260 8.0 17.7 0.00 0.00 0.00 53 1008.5
20260505034041 20 258 8.0 27.4 0.00 0.00 0.00 53 1008.4
20260505033541 20 213 8.0 27.4 0.00 0.00 0.00 52 1008.3
20260505033048 20 236 8.0 22.5 0.00 0.00 0.00 52 1008.2
20260505032541 20 245 6.4 25.7 0.00 0.00 0.00 51 1008.1
20260505032044 20 191 8.0 17.7 0.00 0.00 0.00 51 1008.1
20260505031541 20 265 6.4 29.0 0.00 0.00 0.00 51 1008.0
20260505031041 20 249 11.3 22.5 0.00 0.00 0.00 51 1007.9
20260505030543 20 256 9.7 22.5 0.00 0.00 0.00 50 1007.9
20260505030040 20 237 0.0 14.5 0.00 0.00 0.00 49 1007.8
20260505025540 20 116 6.4 25.7 0.00 0.00 0.00 49 1007.7
20260505025041 20 21 3.2 25.7 0.00 0.00 0.00 48 1007.7
20260505024603 20 209 6.4 19.3 0.00 0.00 0.00 48 1007.5
20260505024042 20 350 3.2 25.7 0.00 0.00 0.00 48 1007.5
20260505023539 21 234 3.2 27.4 0.00 0.00 0.00 48 1007.4
20260505023041 21 273 4.8 27.4 0.00 0.00 0.00 47 1007.3
20260505022539 21 3 1.6 17.7 0.00 0.00 0.00 49 1007.5
20260505022040 21 254 6.4 29.0 0.00 0.00 0.00 47 1007.4
20260505021554 21 268 12.9 29.0 0.00 0.00 0.00 47 1007.3
20260505021038 21 329 4.8 14.5 0.00 0.00 0.00 46 1007.3
20260505020538 21 219 1.6 17.7 0.00 0.00 0.00 47 1007.4
20260505020045 21 259 6.4 25.7 0.00 0.00 0.00 47 1007.3
20260505015538 21 246 6.4 25.7 0.00 0.00 0.00 46 1007.2
20260505015038 21 346 8.0 22.5 0.00 0.00 0.00 46 1007.2
20260505014539 21 248 8.0 24.1 0.00 0.00 0.00 46 1007.2
20260505014037 21 285 4.8 20.9 0.00 0.00 0.00 45 1007.2
20260505013542 21 173 4.8 22.5 0.00 0.00 0.00 45 1007.2
20260505013038 22 191 8.0 33.8 0.00 0.00 0.00 44 1007.1
20260505012538 22 224 6.4 24.1 0.00 0.00 0.00 44 1007.1
20260505012038 22 339 8.0 29.0 0.00 0.00 0.00 44 1007.1
20260505011548 22 264 8.0 29.0 0.00 0.00 0.00 45 1007.0
20260505011038 22 191 12.9 27.4 0.00 0.00 0.00 44 1006.8
20260505010537 22 191 12.9 27.4 0.00 0.00 0.00 44 1006.8
20260505010039 22 323 9.7 27.4 0.00 0.00 0.00 44 1006.9
20260505005537 22 262 6.4 27.4 0.00 0.00 0.00 44 1006.9
20260505005037 22 270 11.3 24.1 0.00 0.00 0.00 43 1006.8
20260505004543 22 191 6.4 29.0 0.00 0.00 0.00 43 1006.8
20260505004037 22 289 11.3 35.4 0.00 0.00 0.00 43 1006.9
20260505003537 22 265 14.5 35.4 0.00 0.00 0.00 43 1006.8
20260505003035 22 259 14.5 32.2 0.00 0.00 0.00 42 1006.8
20260505002537 23 253 16.1 32.2 0.00 0.00 0.00 41 1006.8
20260505002036 23 338 16.1 35.4 0.00 0.00 0.00 42 1006.8
20260505001536 23 260 11.3 35.4 0.00 0.00 0.00 42 1006.7
20260505001035 23 255 9.7 35.4 0.00 0.00 0.00 42 1006.8
20260505000535 23 289 17.7 33.8 0.00 0.00 0.00 42 1006.8
20260505000034 23 191 14.5 33.8 0.00 0.00 0.00 42 1006.7
20260504235534 23 191 12.9 33.8 0.00 0.00 0.00 42 1006.8
20260504235038 23 191 16.1 33.8 0.00 0.00 0.00 40 1006.8
20260504234534 23 250 12.9 32.2 0.00 0.00 0.00 40 1006.7
20260504234038 23 333 14.5 33.8 0.00 0.00 0.00 39 1006.6
20260504233534 23 339 14.5 33.8 0.00 0.00 0.00 39 1006.6
20260504233043 24 312 12.9 33.8 0.00 0.00 0.00 38 1006.6
20260504232534 24 271 9.7 29.0 0.00 0.00 0.00 39 1006.6
20260504232031 24 272 12.9 33.8 0.00 0.00 0.00 39 1006.6
20260504231530 24 307 11.3 33.8 0.00 0.00 0.00 39 1006.7
20260504231029 23 238 12.9 29.0 0.00 0.00 0.00 42 1006.8
20260504230529 23 191 14.5 30.6 0.00 0.00 0.00 41 1006.7
20260504230028 23 229 16.1 38.6 0.00 0.00 0.00 42 1006.8
20260504225529 23 231 19.3 38.6 0.00 0.00 0.00 43 1006.8
20260504225026 22 345 14.5 38.6 0.00 0.00 0.00 46 1006.9
20260504224524 21 259 17.7 38.6 0.00 0.00 0.00 46 1007.0
20260504224024 21 265 12.9 33.8 0.00 0.00 0.00 46 1007.1
20260504223523 22 271 14.5 41.8 0.00 0.00 0.00 47 1007.2
20260504223027 21 260 22.5 41.8 0.00 0.00 0.00 47 1007.2
20260504222521 21 238 16.1 40.2 0.00 0.00 0.00 50 1007.3
20260504222020 21 256 19.3 40.2 0.00 0.00 0.00 49 1007.4
20260504221519 21 263 22.5 43.5 0.00 0.00 0.00 50 1007.4
20260504221018 21 260 27.4 43.5 0.00 0.00 0.00 50 1007.4
20260504220522 21 191 16.1 33.8 0.00 0.00 0.00 49 1007.5
20260504220022 21 236 17.7 33.8 0.00 0.00 0.00 48 1007.5
20260504215518 21 254 12.9 33.8 0.00 0.00 0.00 49 1007.6
20260504215019 21 223 12.9 30.6 0.00 0.00 0.00 47 1007.5
20260504214517 21 235 12.9 29.0 0.00 0.00 0.00 49 1007.6
20260504214017 21 191 12.9 35.4 0.00 0.00 0.00 48 1007.6
20260504213517 21 260 11.3 35.4 0.00 0.00 0.00 49 1007.8
20260504213018 21 259 14.5 35.4 0.00 0.00 0.00 47 1007.8
20260504212516 21 191 8.0 35.4 0.00 0.00 0.00 48 1008.0
20260504212014 21 267 11.3 35.4 0.00 0.00 0.00 49 1008.1
20260504211514 21 248 9.7 30.6 0.00 0.00 0.00 47 1008.1
20260504211014 21 273 14.5 35.4 0.00 0.00 0.00 49 1008.2
20260504210517 21 273 16.1 33.8 0.00 0.00 0.00 49 1008.3
20260504210013 21 253 12.9 30.6 0.00 0.00 0.00 48 1008.2
20260504205515 21 242 12.9 33.8 0.00 0.00 0.00 50 1008.3
20260504205012 21 273 11.3 27.4 0.00 0.00 0.00 49 1008.4
20260504204516 21 263 11.3 33.8 0.00 0.00 0.00 51 1008.4
20260504204009 21 235 14.5 35.4 0.00 0.00 0.00 49 1008.5
20260504203510 20 276 14.5 37.0 0.00 0.00 0.00 50 1008.5
20260504203008 20 231 14.5 37.0 0.00 0.00 0.00 49 1008.7
20260504202508 20 288 20.9 33.8 0.00 0.00 0.00 51 1008.6
20260504202007 20 256 16.1 30.6 0.00 0.00 0.00 51 1008.7
20260504201507 20 228 16.1 33.8 0.00 0.00 0.00 53 1008.6
20260504201008 20 250 19.3 33.8 0.00 0.00 0.00 53 1008.7
20260504200506 20 191 19.3 37.0 0.00 0.00 0.00 52 1008.6